User: anonymous
Location: Caltech
(34.1382°N, 118.1253°W)
Time: 01:16:15
(UTC-07:00)
Language:

Oscar 10/S400 - Orbit

View from above orbital plane
View from above orbital plane
View from above satellite
View from above satellite

Ground track
Ground track

The orbit data is extracted from the following two-line orbital elements,

1 14129U 83058B   14110.21464741  .00000016  00000-0  00000+0 0  1670
2 14129 026.4036 224.2074 5988987 349.8547 340.6444 02.05866741204050
Epoch (UTC): 20 April 2014 05:09:05
Eccentricity: 0.5988987
inclination: 26.4036°
perigee height: 4091 km
apogee height: 35356 km
right ascension of ascending node: 224.2074°
argument of perigee: 349.8547°
revolutions per day: 2.05866741
mean anomaly at epoch: 340.6444°
orbit number at epoch: 20405

The dashed part of the orbit path shows where the satellite is in the earth's shadow,  

DLR